SCP
0 0 0 0 0 0 0 0 0 0 0 0 0 0 0 0 0 0 0 1 1 1 1 1 0 0 0 1 0 -0 -0 -0 -0 -0 -0 -0 -0 -0 0 0 0 0 0
0 -0 -0 0 0 0 0 0 0 -0 0 0 0 0 0 0 0 0 1 1 1 1 1 0 0 0 0 0 0 -0 -0 -0 -0 -0 -0 -0 -0 -0 0 0 0 0 0
-0 0 0 0 0 0 -0 0 -0 0 0 0 0 0 0 0 0 0 0 1 1 1 1 1 0 0 0 0 0 0 -0 -0 -0 -0 -0 -0 -0 -0 0 0 0 0 0
0 -0 -0 0 0 -0 -0 0 0 0 0 0 0 0 0 0 0 0 0 0 0 0 1 1 1 0 0 0 0 0 0 0 -0 -0 -0 -0 -0 -0 -0 0 0 0 0
0 0 0 0 0 -0 0 0 0 0 0 0 0 -0 0 0 0 0 0 0 0 0 0 1 0 0 0 0 0 0 0 0 0 -0 -0 -0 -0 -0 -0 0 -0 0 0
0 0 0 0 0 0 0 0 -0 0 0 0 -0 -0 0 0 0 0 0 0 0 1 0 0 0 0 0 0 0 0 0 0 -0 -0 -0 -0 -0 -0 -0 -0 -0 0 0
0 0 0 0 0 0 0 -0 -0 0 0 0 0 -0 -0 0 0 0 0 0 1 0 0 0 0 0 0 0 0 0 0 0 -0 -0 -0 0 -0 -0 -0 -0 -0 -0 0
0 -0 -0 0 -0 0 -0 -0 0 -0 0 0 0 -0 -0 -0 0 0 0 1 1 1 0 0 0 0 0 0 0 0 0 0 -0 -0 -0 -0 0 -0 -0 -0 -0 -0 -0
0 -0 0 0 -0 0 -0 -0 0 0 0 0 0 0 0 0 -0 0 0 1 0 0 0 0 0 0 0 0 0 0 0 0 -0 -0 -0 0 0 -0 -0 -0 -0 -0 -0
-0 -0 -0 -0 -0 0 0 0 0 0 0 0 0 0 0 0 0 0 0 1 0 0 0 0 0 0 0 0 0 0 0 0 0 0 0 -0 0 -0 -0 -0 -0 -0 0
-0 -0 0 0 0 0 0 0 0 -0 -0 0 0 0 0 0 0 0 0 0 0 0 0 0 0 0 0 0 0 0 0 0 0 0 0 0 0 -0 -0 -0 -0 -0 -0
0 0 0 0 0 0 -0 -0 -0 0 0 0 0 0 0 0 0 0 0 0 0 0 0 0 0 0 0 0 0 0 0 0 0 0 0 0 0 0 -0 -0 -0 -0 -0
-0 -0 0 0 -0 -0 0 0 0 0 0 0 0 0 0 0 0 0 0 0 0 0 0 0 0 0 0 0 0 0 0 0 0 0 0 0 0 0 0 0 -0 0 -0
-0 0 -0 -0 -0 0 0 0 0 0 0 0 0 1 1 0 1 0 0 0 0 0 0 0 0 0 0 0 0 0 0 0 0 0 0 0 0 0 0 0 0 0 -0
-0 -0 0 -0 -0 0 0 0 0 0 0 0 0 1 1 1 1 1 0 0 0 0 0 0 0 0 0 0 0 0 0 0 0 0 0 0 0 0 0 0 0 0 0
-0 -0 -0 -0 0 0 0 0 0 0 0 0 1 1 1 1 1 1 1 0 1 1 0 0 0 0 0 0 0 0 0 0 0 0 0 0 0 0 0 0 0 0 0
0 0 0 0 0 0 0 0 0 0 0 0 0 1 1 1 2 2 1 0 0 1 1 0 0 0 0 0 0 0 0 0 0 0 0 0 0 0 0 0 0 0 0
0 -0 -0 0 0 0 0 0 0 0 1 1 1 1 1 2 2 2 1 1 1 1 0 0 0 0 0 0 0 0 0 0 0 0 0 0 0 0 0 0 0 0 0
0 -0 -0 -0 -0 -0 0 0 1 1 1 1 1 1 1 1 1 2 2 2 1 1 1 0 0 0 0 0 0 0 0 0 0 0 0 0 0 0 0 0 0 0 0
0 0 0 0 0 0 1 1 1 1 1 1 1 1 1 1 1 1 2 2 1 1 1 0 0 0 0 0 0 0 0 0 0 0 0 0 0 0 0 0 0 0 0
0 0 0 -0 0 0 1 0 1 2 3 2 2 2 1 2 1 2 3 2 1 2 1 1 0 0 0 0 0 0 0 0 0 0 0 0 0 0 0 0 0 0 0
-0 0 0 0 0 1 0 0 0 0 0 1 1 1 2 2 1 1 1 2 2 2 1 1 0 0 0 0 0 0 0 0 0 0 0 0 0 -0 -0 0 0 0 0
1 1 0 0 0 0 0 0 0 0 0 0 0 1 1 2 2 2 1 2 2 2 2 1 1 0 0 0 0 0 0 0 0 0 0 0 0 0 0 0 0 0 0
0 0 0 0 0 0 0 0 0 0 0 0 0 0 1 1 2 3 2 1 1 0 0 0 0 0 0 0 0 0 0 0 0 0 0 0 0 0 0 0 0 -0 0
0 0 0 0 0 0 0 0 0 0 0 0 0 0 0 0 2 1 4 2 2 1 0 0 0 0 0 0 0 0 0 0 0 0 0 0 0 0 0 0 0 0 0
0 0 0 0 0 0 0 0 0 0 0 0 0 0 0 1 0 2 3 4 3 1 0 0 0 0 0 0 0 0 0 0 0 0 0 0 0 0 -0 -0 0 0 0
Wind_Speed_500mb
4 5 9 13 10 10 10 12 15 13 14 18 8 10 15 8 8 9 1 6 8 15 11 13 14 14 20 28 31 37 38 40 39 39 46 47 53 64 49 45 43 40 38
10 12 17 10 2 10 7 8 14 15 24 17 20 16 18 18 4 11 10 4 1 9 17 18 20 16 14 20 26 30 34 39 41 41 43 46 50 58 67 53 46 45 42
9 10 12 10 10 7 5 13 15 18 22 16 15 12 19 12 17 7 6 16 16 18 24 17 23 21 16 16 19 24 28 33 39 42 45 49 50 46 77 63 52 49 49
4 4 7 0 6 8 15 3 4 26 28 13 22 23 6 7 6 2 4 19 20 22 20 20 25 25 16 12 14 25 25 20 26 38 44 48 55 51 69 69 61 53 52
9 12 4 11 9 13 13 5 27 24 26 24 27 26 22 7 3 4 8 17 26 30 25 28 25 27 23 15 14 10 7 9 16 25 32 42 54 63 55 85 67 61 57
5 11 13 14 7 12 5 13 26 20 25 23 28 30 16 10 6 9 3 12 17 24 19 25 31 29 26 18 15 11 12 15 19 24 30 36 45 61 68 82 81 71 67
2 11 7 9 10 11 13 20 13 19 19 23 30 23 21 15 5 13 18 12 17 19 20 24 26 27 27 11 9 13 16 19 25 27 28 27 31 49 71 71 87 78 77
7 13 11 9 13 0 14 28 22 12 16 15 21 24 15 13 2 16 11 12 22 23 20 19 20 23 20 7 11 17 20 24 29 28 28 24 22 38 54 57 87 81 80
9 14 11 9 12 10 18 27 17 11 19 10 15 16 10 10 23 7 13 17 25 29 24 22 23 21 18 7 16 20 26 33 39 33 28 22 19 32 41 60 89 83 82
14 14 16 9 8 7 9 6 13 14 15 15 16 16 17 16 16 7 4 16 23 23 21 24 21 16 13 17 19 23 31 42 42 34 28 23 19 26 34 56 86 84 83
17 13 20 24 18 7 9 11 10 10 18 14 16 12 14 19 20 14 14 13 14 24 20 22 21 18 19 18 20 27 37 39 32 26 21 20 23 25 39 46 83 85 87
22 24 32 23 20 24 15 13 16 24 21 18 15 13 14 18 19 17 19 10 21 20 20 24 20 23 24 24 25 33 31 24 22 18 15 16 20 22 33 50 59 90 87
21 22 21 29 27 25 21 24 24 29 16 18 19 21 21 16 15 23 35 22 25 26 28 23 22 24 19 26 27 35 29 23 20 16 13 13 14 21 26 38 64 69 85
21 18 2 15 20 22 33 28 28 32 24 22 28 29 24 8 15 24 25 32 26 19 27 26 24 23 20 25 27 37 27 21 20 14 11 12 10 11 25 31 42 57 77
27 25 14 19 27 33 27 24 26 28 28 28 29 28 27 20 21 18 21 22 30 22 35 22 22 25 28 23 23 28 21 18 14 13 13 12 11 13 18 22 38 46 84
24 29 36 38 39 39 37 35 32 33 33 32 33 35 32 34 30 26 26 25 22 29 24 34 29 26 29 34 28 22 18 18 16 15 15 15 14 13 16 16 29 35 61
35 41 46 49 47 41 35 32 33 33 34 32 29 29 30 29 33 28 24 30 33 34 34 32 36 31 28 24 27 27 18 19 20 19 16 13 12 12 10 5 14 34 55
34 37 38 39 36 30 27 26 28 29 31 30 30 33 37 37 37 37 27 27 34 29 34 36 34 26 19 17 19 17 14 20 20 20 17 12 8 9 7 4 12 33 44
39 44 42 39 36 31 28 27 24 21 23 24 25 30 32 30 33 34 32 33 35 32 32 31 24 25 20 19 15 6 9 13 22 21 22 13 5 3 5 6 12 20 23
32 34 33 35 37 26 24 26 22 17 18 20 24 27 31 32 31 32 35 36 36 42 43 34 33 30 26 18 20 15 17 16 22 24 27 12 7 7 4 3 9 18 23
25 38 42 40 35 29 32 32 19 17 20 26 36 39 38 37 35 34 39 42 43 40 46 37 38 40 41 29 25 15 17 21 23 21 21 3 4 10 9 4 2 16 20
38 31 46 34 28 24 35 30 33 31 30 29 31 32 36 37 36 37 38 44 42 46 51 47 43 48 47 41 25 22 22 30 28 20 13 5 2 6 11 5 2 14 23
47 31 43 46 41 37 36 35 36 36 41 46 43 42 41 35 31 35 41 44 45 47 49 47 43 49 47 47 33 34 30 27 29 18 12 9 8 8 8 7 4 15 22
41 48 52 55 54 53 50 51 50 55 59 59 58 54 45 42 36 40 41 44 48 47 48 53 47 50 53 32 36 36 36 30 26 19 15 12 11 12 14 12 9 16 16
45 47 50 53 54 55 53 55 61 66 66 65 60 54 48 36 38 44 48 51 48 49 44 53 51 48 47 43 37 41 42 38 32 29 24 17 15 17 17 18 17 20 21
46 54 59 59 61 63 60 59 57 58 60 57 49 42 36 32 39 43 46 51 54 50 45 51 51 47 49 44 41 38 36 35 33 26 26 26 18 22 19 24 20 20 23
Wind_Direction_500mb
295 302 326 298 46 26 9 28 358 328 308 14 3 297 301 353 14 17 97 119 194 248 301 313 311 287 274 265 261 260 261 257 253 245 238 238 234 227 224 219 214 206 200
236 247 256 266 291 84 82 342 345 308 301 310 337 345 348 307 322 107 99 68 49 343 345 341 352 341 300 274 267 264 264 264 255 251 245 254 243 225 222 219 216 204 198
204 263 289 273 261 100 296 283 325 334 344 346 22 11 19 109 161 143 50 357 335 353 348 350 340 343 318 297 287 277 268 264 256 259 252 255 241 236 218 217 214 203 199
148 256 327 347 198 227 285 245 4 344 335 351 19 24 128 97 102 106 20 11 17 3 359 355 334 343 321 292 293 289 282 271 258 261 262 254 248 235 217 212 210 206 199
278 273 341 350 7 346 23 357 346 347 4 13 9 9 10 214 274 339 349 10 15 14 10 351 340 343 333 311 323 314 313 293 281 279 273 259 247 238 224 212 211 207 198
284 244 319 293 326 12 30 347 346 354 359 6 8 8 39 199 215 313 345 359 13 5 356 350 347 337 335 312 324 334 326 312 304 295 289 273 249 239 230 212 211 206 201
76 258 290 2 277 322 287 323 346 352 359 358 10 57 48 55 285 321 309 335 335 345 4 4 348 326 327 314 326 337 330 322 318 306 298 282 259 233 235 217 205 205 202
234 269 263 317 352 126 329 316 306 307 8 4 4 10 11 72 81 327 328 293 315 327 339 354 347 328 336 356 326 316 325 318 319 315 300 294 266 218 214 221 201 204 203
204 236 284 287 297 323 329 336 287 319 343 357 353 340 334 358 349 11 330 302 298 311 319 342 353 344 349 327 291 306 315 312 315 307 300 290 265 220 224 214 200 205 204
233 231 249 276 307 350 329 271 267 319 325 311 351 353 321 340 349 317 300 298 283 303 316 345 347 335 336 336 326 315 305 301 308 304 290 284 270 218 224 217 202 207 204
258 273 257 256 270 309 297 303 281 290 307 327 331 333 307 345 344 315 6 265 286 300 321 333 344 323 322 322 308 308 305 305 306 302 289 277 258 241 228 215 212 211 209
282 283 272 240 251 274 280 281 279 287 309 322 326 332 327 316 327 319 341 343 332 309 309 317 339 339 338 317 312 336 331 329 323 313 304 289 257 252 232 228 219 215 212
254 299 300 240 243 268 287 292 289 301 311 313 320 322 331 311 304 317 322 319 325 312 302 304 323 335 324 320 332 336 325 326 330 313 314 306 286 255 243 240 212 217 215
245 295 323 224 242 280 300 298 285 291 297 303 303 306 317 289 306 325 341 344 322 302 298 302 318 325 299 318 310 327 329 334 330 328 315 308 296 269 249 243 230 223 224
254 276 276 238 256 278 288 298 289 289 286 289 296 297 298 297 293 312 316 312 335 322 311 301 312 316 309 304 304 322 332 342 331 326 322 312 300 279 274 261 239 225 234
229 246 251 262 270 278 286 287 282 285 286 283 288 294 289 290 295 296 281 284 312 315 290 297 307 313 306 290 289 316 327 337 329 313 311 315 310 296 297 287 224 234 204
250 255 260 266 272 276 277 276 276 279 281 285 286 285 290 297 295 294 295 293 306 311 302 297 304 306 305 282 286 301 318 331 338 322 315 324 318 311 303 324 216 208 208
263 264 267 270 274 277 284 286 285 281 282 286 293 293 291 287 285 298 303 285 265 292 309 311 303 291 311 303 302 302 326 353 360 344 323 300 323 332 303 228 191 200 200
275 278 278 277 278 284 294 297 297 297 298 296 298 298 299 301 294 282 294 288 295 269 299 295 293 273 288 309 297 305 334 322 350 352 349 312 267 344 348 228 197 205 204
281 278 280 283 274 268 268 262 261 269 283 290 301 301 301 297 299 293 285 284 286 282 293 280 276 266 269 292 273 271 278 306 325 340 340 309 258 232 271 353 205 212 194
335 350 304 301 274 287 272 277 301 271 279 287 292 292 294 297 292 286 283 283 285 284 280 271 259 258 244 249 279 274 263 271 292 318 338 44 232 218 227 310 297 197 202
313 287 303 308 308 289 297 301 306 299 291 288 293 298 294 289 287 279 277 273 275 275 277 266 248 248 247 251 264 238 244 245 255 294 304 254 223 190 229 227 191 188 187
277 277 289 298 301 297 295 293 294 294 297 300 297 296 297 291 285 282 275 275 271 273 274 266 259 241 251 245 256 239 231 252 258 279 274 221 195 229 245 224 198 170 189
273 289 293 294 294 296 299 297 294 295 298 300 300 300 297 296 284 276 280 276 275 276 272 260 257 248 246 240 243 251 236 242 245 251 235 233 232 225 222 234 225 186 199
283 286 288 290 292 294 297 296 295 297 298 299 301 301 304 290 272 268 268 272 276 269 268 255 254 252 246 240 232 243 228 232 242 243 234 242 247 229 217 209 203 195 198
298 297 298 299 299 298 296 295 295 296 294 296 298 298 298 293 285 279 275 268 265 272 271 257 251 242 237 238 241 242 235 225 207 217 228 232 243 213 205 198 196 193 187
Wind_Speed_850mb
4 5 9 13 10 10 10 12 15 13 14 18 8 10 15 8 8 9 1 6 8 15 11 13 14 14 20 28 31 37 38 40 39 39 46 47 53 64 49 45 43 40 38
10 12 17 10 2 10 7 8 14 15 24 17 20 16 18 18 4 11 10 4 1 9 17 18 20 16 14 20 26 30 34 39 41 41 43 46 50 58 67 53 46 45 42
9 10 12 10 10 7 5 13 15 18 22 16 15 12 19 12 17 7 6 16 16 18 24 17 23 21 16 16 19 24 28 33 39 42 45 49 50 46 77 63 52 49 49
4 4 7 0 6 8 15 3 4 26 28 13 22 23 6 7 6 2 4 19 20 22 20 20 25 25 16 12 14 25 25 20 26 38 44 48 55 51 69 69 61 53 52
9 12 4 11 9 13 13 5 27 24 26 24 27 26 22 7 3 4 8 17 26 30 25 28 25 27 23 15 14 10 7 9 16 25 32 42 54 63 55 85 67 61 57
5 11 13 14 7 12 5 13 26 20 25 23 28 30 16 10 6 9 3 12 17 24 19 25 31 29 26 18 15 11 12 15 19 24 30 36 45 61 68 82 81 71 67
2 11 7 9 10 11 13 20 13 19 19 23 30 23 21 15 5 13 18 12 17 19 20 24 26 27 27 11 9 13 16 19 25 27 28 27 31 49 71 71 87 78 77
7 13 11 9 13 0 14 28 22 12 16 15 21 24 15 13 2 16 11 12 22 23 20 19 20 23 20 7 11 17 20 24 29 28 28 24 22 38 54 57 87 81 80
9 14 11 9 12 10 18 27 17 11 19 10 15 16 10 10 23 7 13 17 25 29 24 22 23 21 18 7 16 20 26 33 39 33 28 22 19 32 41 60 89 83 82
14 14 16 9 8 7 9 6 13 14 15 15 16 16 17 16 16 7 4 16 23 23 21 24 21 16 13 17 19 23 31 42 42 34 28 23 19 26 34 56 86 84 83
17 13 20 24 18 7 9 11 10 10 18 14 16 12 14 19 20 14 14 13 14 24 20 22 21 18 19 18 20 27 37 39 32 26 21 20 23 25 39 46 83 85 87
22 24 32 23 20 24 15 13 16 24 21 18 15 13 14 18 19 17 19 10 21 20 20 24 20 23 24 24 25 33 31 24 22 18 15 16 20 22 33 50 59 90 87
21 22 21 29 27 25 21 24 24 29 16 18 19 21 21 16 15 23 35 22 25 26 28 23 22 24 19 26 27 35 29 23 20 16 13 13 14 21 26 38 64 69 85
21 18 2 15 20 22 33 28 28 32 24 22 28 29 24 8 15 24 25 32 26 19 27 26 24 23 20 25 27 37 27 21 20 14 11 12 10 11 25 31 42 57 77
27 25 14 19 27 33 27 24 26 28 28 28 29 28 27 20 21 18 21 22 30 22 35 22 22 25 28 23 23 28 21 18 14 13 13 12 11 13 18 22 38 46 84
24 29 36 38 39 39 37 35 32 33 33 32 33 35 32 34 30 26 26 25 22 29 24 34 29 26 29 34 28 22 18 18 16 15 15 15 14 13 16 16 29 35 61
35 41 46 49 47 41 35 32 33 33 34 32 29 29 30 29 33 28 24 30 33 34 34 32 36 31 28 24 27 27 18 19 20 19 16 13 12 12 10 5 14 34 55
34 37 38 39 36 30 27 26 28 29 31 30 30 33 37 37 37 37 27 27 34 29 34 36 34 26 19 17 19 17 14 20 20 20 17 12 8 9 7 4 12 33 44
39 44 42 39 36 31 28 27 24 21 23 24 25 30 32 30 33 34 32 33 35 32 32 31 24 25 20 19 15 6 9 13 22 21 22 13 5 3 5 6 12 20 23
32 34 33 35 37 26 24 26 22 17 18 20 24 27 31 32 31 32 35 36 36 42 43 34 33 30 26 18 20 15 17 16 22 24 27 12 7 7 4 3 9 18 23
25 38 42 40 35 29 32 32 19 17 20 26 36 39 38 37 35 34 39 42 43 40 46 37 38 40 41 29 25 15 17 21 23 21 21 3 4 10 9 4 2 16 20
38 31 46 34 28 24 35 30 33 31 30 29 31 32 36 37 36 37 38 44 42 46 51 47 43 48 47 41 25 22 22 30 28 20 13 5 2 6 11 5 2 14 23
47 31 43 46 41 37 36 35 36 36 41 46 43 42 41 35 31 35 41 44 45 47 49 47 43 49 47 47 33 34 30 27 29 18 12 9 8 8 8 7 4 15 22
41 48 52 55 54 53 50 51 50 55 59 59 58 54 45 42 36 40 41 44 48 47 48 53 47 50 53 32 36 36 36 30 26 19 15 12 11 12 14 12 9 16 16
45 47 50 53 54 55 53 55 61 66 66 65 60 54 48 36 38 44 48 51 48 49 44 53 51 48 47 43 37 41 42 38 32 29 24 17 15 17 17 18 17 20 21
46 54 59 59 61 63 60 59 57 58 60 57 49 42 36 32 39 43 46 51 54 50 45 51 51 47 49 44 41 38 36 35 33 26 26 26 18 22 19 24 20 20 23
Wind_Direction_850mb
295 302 326 298 46 26 9 28 358 328 308 14 3 297 301 353 14 17 97 119 194 248 301 313 311 287 274 265 261 260 261 257 253 245 238 238 234 227 224 219 214 206 200
236 247 256 266 291 84 82 342 345 308 301 310 337 345 348 307 322 107 99 68 49 343 345 341 352 341 300 274 267 264 264 264 255 251 245 254 243 225 222 219 216 204 198
204 263 289 273 261 100 296 283 325 334 344 346 22 11 19 109 161 143 50 357 335 353 348 350 340 343 318 297 287 277 268 264 256 259 252 255 241 236 218 217 214 203 199
148 256 327 347 198 227 285 245 4 344 335 351 19 24 128 97 102 106 20 11 17 3 359 355 334 343 321 292 293 289 282 271 258 261 262 254 248 235 217 212 210 206 199
278 273 341 350 7 346 23 357 346 347 4 13 9 9 10 214 274 339 349 10 15 14 10 351 340 343 333 311 323 314 313 293 281 279 273 259 247 238 224 212 211 207 198
284 244 319 293 326 12 30 347 346 354 359 6 8 8 39 199 215 313 345 359 13 5 356 350 347 337 335 312 324 334 326 312 304 295 289 273 249 239 230 212 211 206 201
76 258 290 2 277 322 287 323 346 352 359 358 10 57 48 55 285 321 309 335 335 345 4 4 348 326 327 314 326 337 330 322 318 306 298 282 259 233 235 217 205 205 202
234 269 263 317 352 126 329 316 306 307 8 4 4 10 11 72 81 327 328 293 315 327 339 354 347 328 336 356 326 316 325 318 319 315 300 294 266 218 214 221 201 204 203
204 236 284 287 297 323 329 336 287 319 343 357 353 340 334 358 349 11 330 302 298 311 319 342 353 344 349 327 291 306 315 312 315 307 300 290 265 220 224 214 200 205 204
233 231 249 276 307 350 329 271 267 319 325 311 351 353 321 340 349 317 300 298 283 303 316 345 347 335 336 336 326 315 305 301 308 304 290 284 270 218 224 217 202 207 204
258 273 257 256 270 309 297 303 281 290 307 327 331 333 307 345 344 315 6 265 286 300 321 333 344 323 322 322 308 308 305 305 306 302 289 277 258 241 228 215 212 211 209
282 283 272 240 251 274 280 281 279 287 309 322 326 332 327 316 327 319 341 343 332 309 309 317 339 339 338 317 312 336 331 329 323 313 304 289 257 252 232 228 219 215 212
254 299 300 240 243 268 287 292 289 301 311 313 320 322 331 311 304 317 322 319 325 312 302 304 323 335 324 320 332 336 325 326 330 313 314 306 286 255 243 240 212 217 215
245 295 323 224 242 280 300 298 285 291 297 303 303 306 317 289 306 325 341 344 322 302 298 302 318 325 299 318 310 327 329 334 330 328 315 308 296 269 249 243 230 223 224
254 276 276 238 256 278 288 298 289 289 286 289 296 297 298 297 293 312 316 312 335 322 311 301 312 316 309 304 304 322 332 342 331 326 322 312 300 279 274 261 239 225 234
229 246 251 262 270 278 286 287 282 285 286 283 288 294 289 290 295 296 281 284 312 315 290 297 307 313 306 290 289 316 327 337 329 313 311 315 310 296 297 287 224 234 204
250 255 260 266 272 276 277 276 276 279 281 285 286 285 290 297 295 294 295 293 306 311 302 297 304 306 305 282 286 301 318 331 338 322 315 324 318 311 303 324 216 208 208
263 264 267 270 274 277 284 286 285 281 282 286 293 293 291 287 285 298 303 285 265 292 309 311 303 291 311 303 302 302 326 353 360 344 323 300 323 332 303 228 191 200 200
275 278 278 277 278 284 294 297 297 297 298 296 298 298 299 301 294 282 294 288 295 269 299 295 293 273 288 309 297 305 334 322 350 352 349 312 267 344 348 228 197 205 204
281 278 280 283 274 268 268 262 261 269 283 290 301 301 301 297 299 293 285 284 286 282 293 280 276 266 269 292 273 271 278 306 325 340 340 309 258 232 271 353 205 212 194
335 350 304 301 274 287 272 277 301 271 279 287 292 292 294 297 292 286 283 283 285 284 280 271 259 258 244 249 279 274 263 271 292 318 338 44 232 218 227 310 297 197 202
313 287 303 308 308 289 297 301 306 299 291 288 293 298 294 289 287 279 277 273 275 275 277 266 248 248 247 251 264 238 244 245 255 294 304 254 223 190 229 227 191 188 187
277 277 289 298 301 297 295 293 294 294 297 300 297 296 297 291 285 282 275 275 271 273 274 266 259 241 251 245 256 239 231 252 258 279 274 221 195 229 245 224 198 170 189
273 289 293 294 294 296 299 297 294 295 298 300 300 300 297 296 284 276 280 276 275 276 272 260 257 248 246 240 243 251 236 242 245 251 235 233 232 225 222 234 225 186 199
283 286 288 290 292 294 297 296 295 297 298 299 301 301 304 290 272 268 268 272 276 269 268 255 254 252 246 240 232 243 228 232 242 243 234 242 247 229 217 209 203 195 198
298 297 298 299 299 298 296 295 295 296 294 296 298 298 298 293 285 279 275 268 265 272 271 257 251 242 237 238 241 242 235 225 207 217 228 232 243 213 205 198 196 193 187